Time,TemperatureF,DewpointF,PressureIn,WindDirection,WindDirectionDegrees,WindSpeedMPH,WindSpeedGustMPH,Humidity,HourlyPrecipIn,Conditions,Clouds,dailyrainin,SoftwareType,DateUTC
2012-06-29 00:00:00,84.0,72.8,30.19,NE,46,5.0,5.0,69,0.00,CLR,,0.00,WeatherDisplay:10.37,2012-06-29 06:00:00,
2012-06-29 00:10:00,84.0,72.8,30.18,NE,46,5.0,5.0,69,0.00,CLR,,0.00,WeatherDisplay:10.37,2012-06-29 06:10:00,
2012-06-29 00:20:00,84.0,73.6,30.18,ENE,60,7.0,7.0,71,0.00,CLR,,0.00,WeatherDisplay:10.37,2012-06-29 06:20:00,
2012-06-29 00:30:00,83.7,73.3,30.17,ENE,68,7.0,7.0,71,0.00,CLR,,0.00,WeatherDisplay:10.37,2012-06-29 06:30:00,
2012-06-29 00:40:00,83.7,72.8,30.16,ENE,71,9.0,18.0,70,0.00,CLR,,0.00,WeatherDisplay:10.37,2012-06-29 06:40:00,
2012-06-29 00:50:00,83.7,72.8,30.16,ESE,110,10.0,21.0,70,0.00,CLR,,0.00,WeatherDisplay:10.37,2012-06-29 06:50:00,
2012-06-29 01:00:00,83.7,73.3,30.16,ENE,78,15.0,21.0,71,0.00,CLR,,0.00,WeatherDisplay:10.37,2012-06-29 07:00:00,
2012-06-29 01:10:00,83.7,72.4,30.16,East,96,8.0,16.0,69,0.00,CLR,,0.00,WeatherDisplay:10.37,2012-06-29 07:10:00,
2012-06-29 01:20:00,83.7,72.4,30.16,ENE,69,7.0,13.0,69,0.00,CLR,,0.00,WeatherDisplay:10.37,2012-06-29 07:20:00,
2012-06-29 01:30:00,83.7,72.8,30.15,NNE,31,8.0,12.0,70,0.00,CLR,,0.00,WeatherDisplay:10.37,2012-06-29 07:30:00,
2012-06-29 01:40:00,83.5,72.7,30.15,East,90,7.0,12.0,70,0.00,CLR,,0.00,WeatherDisplay:10.37,2012-06-29 07:40:00,
2012-06-29 01:50:00,83.5,72.7,30.15,ENE,68,9.0,9.0,70,0.00,CLR,,0.00,WeatherDisplay:10.37,2012-06-29 07:50:00,
2012-06-29 02:00:00,83.7,72.8,30.15,ENE,70,12.0,23.0,70,0.00,CLR,,0.00,WeatherDisplay:10.37,2012-06-29 08:00:00,
2012-06-29 02:10:00,83.4,72.6,30.15,ENE,60,9.0,14.0,70,0.00,CLR,,0.00,WeatherDisplay:10.37,2012-06-29 08:10:00,
2012-06-29 02:20:00,83.3,72.5,30.15,East,94,13.0,15.0,70,0.00,CLR,,0.00,WeatherDisplay:10.37,2012-06-29 08:20:00,
2012-06-29 02:30:00,83.3,72.5,30.15,East,90,9.0,12.0,70,0.00,CLR,,0.00,WeatherDisplay:10.37,2012-06-29 08:30:00,
2012-06-29 02:40:00,83.3,72.5,30.15,ENE,69,3.0,15.0,70,0.00,CLR,,0.00,WeatherDisplay:10.37,2012-06-29 08:40:00,
2012-06-29 02:50:00,83.3,72.1,30.15,ENE,73,10.0,12.0,69,0.00,CLR,,0.00,WeatherDisplay:10.37,2012-06-29 08:50:00,
2012-06-29 03:00:00,83.3,72.1,30.15,East,81,12.0,12.0,69,0.00,CLR,,0.00,WeatherDisplay:10.37,2012-06-29 09:00:00,
2012-06-29 03:10:00,83.3,72.1,30.15,ENE,68,12.0,12.0,69,0.00,CLR,,0.00,WeatherDisplay:10.37,2012-06-29 09:10:00,
2012-06-29 03:20:00,83.3,72.1,30.15,ENE,68,12.0,12.0,69,0.00,CLR,,0.00,WeatherDisplay:10.37,2012-06-29 09:20:00,
2012-06-29 03:30:00,83.3,72.1,30.16,East,82,12.0,12.0,69,0.00,CLR,,0.00,WeatherDisplay:10.37,2012-06-29 09:30:00,
2012-06-29 03:40:00,83.3,71.6,30.16,East,86,7.0,12.0,68,0.00,CLR,,0.00,WeatherDisplay:10.37,2012-06-29 09:40:00,
2012-06-29 03:50:00,83.3,72.1,30.16,ENE,68,7.0,7.0,69,0.00,CLR,,0.00,WeatherDisplay:10.37,2012-06-29 09:50:00,
2012-06-29 04:00:00,83.3,72.1,30.16,ENE,68,7.0,7.0,69,0.00,CLR,,0.00,WeatherDisplay:10.37,2012-06-29 10:00:00,
2012-06-29 04:10:00,83.3,72.1,30.16,ENE,69,7.0,7.0,69,0.00,CLR,,0.00,WeatherDisplay:10.37,2012-06-29 10:10:00,
2012-06-29 04:20:00,83.3,72.1,30.16,ENE,69,7.0,7.0,69,0.00,CLR,,0.00,WeatherDisplay:10.37,2012-06-29 10:20:00,
2012-06-29 04:30:00,83.3,72.1,30.16,ENE,69,7.0,7.0,69,0.00,CLR,,0.00,WeatherDisplay:10.37,2012-06-29 10:30:00,
2012-06-29 04:40:00,83.3,72.1,30.16,ENE,69,7.0,7.0,69,0.00,CLR,,0.00,WeatherDisplay:10.37,2012-06-29 10:40:00,
2012-06-29 04:50:00,83.1,71.5,30.17,East,99,5.0,7.0,68,0.00,CLR,,0.00,WeatherDisplay:10.37,2012-06-29 10:50:00,
2012-06-29 05:00:00,83.1,71.5,30.17,East,90,7.0,9.0,68,0.00,CLR,,0.00,WeatherDisplay:10.37,2012-06-29 11:00:00,
2012-06-29 05:10:00,83.1,71.5,30.17,East,79,10.0,11.0,68,0.00,CLR,,0.00,WeatherDisplay:10.37,2012-06-29 11:10:00,
2012-06-29 05:20:00,83.1,71.5,30.17,ENE,68,10.0,11.0,68,0.00,CLR,,0.00,WeatherDisplay:10.37,2012-06-29 11:20:00,
2012-06-29 05:30:00,82.8,70.7,30.17,East,84,9.0,11.0,67,0.00,CLR,,0.00,WeatherDisplay:10.37,2012-06-29 11:30:00,
2012-06-29 05:40:00,82.8,71.1,30.18,ENE,62,13.0,14.0,68,0.00,CLR,,0.00,WeatherDisplay:10.37,2012-06-29 11:40:00,
2012-06-29 05:50:00,83.0,71.4,30.18,ENE,76,6.0,14.0,68,0.00,CLR,,0.00,WeatherDisplay:10.37,2012-06-29 11:50:00,
2012-06-29 06:00:00,83.1,71.5,30.18,NE,56,9.0,11.0,68,0.00,CLR,,0.00,WeatherDisplay:10.37,2012-06-29 12:00:00,
2012-06-29 06:10:00,83.3,70.8,30.18,ENE,58,7.0,11.0,66,0.00,CLR,,0.00,WeatherDisplay:10.37,2012-06-29 12:10:00,
2012-06-29 06:20:00,84.0,71.4,30.18,East,81,6.0,12.0,66,0.00,CLR,,0.00,WeatherDisplay:10.37,2012-06-29 12:20:00,
2012-06-29 06:30:00,84.4,71.3,30.18,ENE,76,14.0,14.0,65,0.00,CLR,,0.00,WeatherDisplay:10.37,2012-06-29 12:30:00,
2012-06-29 06:40:00,84.9,71.8,30.19,East,79,8.0,14.0,65,0.00,CLR,,0.00,WeatherDisplay:10.37,2012-06-29 12:40:00,
2012-06-29 06:50:00,85.6,71.6,30.19,East,93,12.0,12.0,63,0.00,CLR,,0.00,WeatherDisplay:10.37,2012-06-29 12:50:00,
2012-06-29 07:00:00,85.8,71.3,30.20,East,95,14.0,15.0,62,0.00,CLR,,0.00,WeatherDisplay:10.37,2012-06-29 13:00:00,
2012-06-29 07:10:00,85.8,71.3,30.20,SE,135,10.0,10.0,62,0.00,CLR,,0.00,WeatherDisplay:10.37,2012-06-29 13:10:00,
2012-06-29 07:20:00,85.8,71.3,30.20,SE,135,10.0,10.0,62,0.00,CLR,,0.00,WeatherDisplay:10.37,2012-06-29 13:20:00,
2012-06-29 07:30:00,85.8,71.3,30.20,SE,136,10.0,10.0,62,0.00,CLR,,0.00,WeatherDisplay:10.37,2012-06-29 13:30:00,
2012-06-29 07:40:00,85.8,71.3,30.20,SE,136,10.0,10.0,62,0.00,CLR,,0.00,WeatherDisplay:10.37,2012-06-29 13:40:00,
2012-06-29 07:50:00,85.8,71.3,30.20,SE,136,10.0,10.0,62,0.00,CLR,,0.00,WeatherDisplay:10.37,2012-06-29 13:50:00,
2012-06-29 08:00:00,85.8,71.3,30.21,SE,136,10.0,10.0,62,0.00,CLR,,0.00,WeatherDisplay:10.37,2012-06-29 14:00:00,
2012-06-29 08:10:00,85.8,71.3,30.21,SE,136,10.0,10.0,62,0.00,CLR,,0.00,WeatherDisplay:10.37,2012-06-29 14:10:00,
2012-06-29 08:20:00,85.8,71.3,30.22,SE,136,10.0,10.0,62,0.00,CLR,,0.00,WeatherDisplay:10.37,2012-06-29 14:20:00,
2012-06-29 08:30:00,85.8,71.3,30.22,SE,136,10.0,10.0,62,0.00,CLR,,0.00,WeatherDisplay:10.37,2012-06-29 14:30:00,
2012-06-29 08:40:00,85.8,71.3,30.22,SE,136,10.0,10.0,62,0.00,CLR,,0.00,WeatherDisplay:10.37,2012-06-29 14:40:00,
2012-06-29 08:50:00,85.8,71.3,30.22,SE,136,10.0,10.0,62,0.00,CLR,,0.00,WeatherDisplay:10.37,2012-06-29 14:50:00,
2012-06-29 09:00:00,85.8,71.3,30.22,SE,136,10.0,10.0,62,0.00,CLR,,0.00,WeatherDisplay:10.37,2012-06-29 15:00:00,
2012-06-29 09:10:00,85.8,71.3,30.22,SE,136,10.0,10.0,62,0.00,CLR,,0.00,WeatherDisplay:10.37,2012-06-29 15:10:00,
2012-06-29 09:20:00,85.8,71.3,30.21,SE,136,10.0,10.0,62,0.00,CLR,,0.00,WeatherDisplay:10.37,2012-06-29 15:20:00,
2012-06-29 09:30:00,85.8,71.3,30.21,SE,136,10.0,10.0,62,0.00,CLR,,0.00,WeatherDisplay:10.37,2012-06-29 15:30:00,
2012-06-29 09:40:00,85.8,71.3,30.21,SE,136,10.0,10.0,62,0.00,CLR,,0.00,WeatherDisplay:10.37,2012-06-29 15:40:00,
2012-06-29 09:50:00,85.8,71.3,30.21,SE,136,10.0,10.0,62,0.00,CLR,,0.00,WeatherDisplay:10.37,2012-06-29 15:50:00,
2012-06-29 10:00:00,85.8,71.3,30.21,SE,136,10.0,10.0,62,0.00,CLR,,0.00,WeatherDisplay:10.37,2012-06-29 16:00:00,
2012-06-29 10:10:00,85.8,71.3,30.21,SE,136,10.0,10.0,62,0.00,CLR,,0.00,WeatherDisplay:10.37,2012-06-29 16:10:00,
2012-06-29 10:20:00,85.8,71.3,30.21,SE,136,10.0,10.0,62,0.00,CLR,,0.00,WeatherDisplay:10.37,2012-06-29 16:20:00,
2012-06-29 10:30:00,85.8,71.3,30.21,SE,136,10.0,10.0,62,0.00,CLR,,0.00,WeatherDisplay:10.37,2012-06-29 16:30:00,
2012-06-29 10:40:00,85.8,71.3,30.20,SE,136,10.0,10.0,62,0.00,CLR,,0.00,WeatherDisplay:10.37,2012-06-29 16:40:00,
2012-06-29 10:50:00,85.8,71.3,30.20,SE,136,10.0,10.0,62,0.00,CLR,,0.00,WeatherDisplay:10.37,2012-06-29 16:50:00,
2012-06-29 11:00:00,85.8,71.3,30.20,SE,136,10.0,10.0,62,0.00,CLR,,0.00,WeatherDisplay:10.37,2012-06-29 17:00:00,
2012-06-29 11:10:00,85.8,71.3,30.20,SE,136,10.0,10.0,62,0.00,CLR,,0.00,WeatherDisplay:10.37,2012-06-29 17:10:00,
2012-06-29 11:20:00,85.8,71.3,30.20,SE,136,10.0,10.0,62,0.00,CLR,,0.00,WeatherDisplay:10.37,2012-06-29 17:20:00,
2012-06-29 11:30:00,85.8,71.3,30.19,SE,136,10.0,10.0,62,0.00,CLR,,0.00,WeatherDisplay:10.37,2012-06-29 17:30:00,
2012-06-29 11:40:00,85.8,71.3,30.18,SE,136,10.0,10.0,62,0.00,CLR,,0.00,WeatherDisplay:10.37,2012-06-29 17:40:00,
2012-06-29 11:50:00,85.8,71.3,30.19,SE,136,10.0,10.0,62,0.00,CLR,,0.00,WeatherDisplay:10.37,2012-06-29 17:50:00,
2012-06-29 12:00:00,85.8,71.3,30.19,SE,136,10.0,10.0,62,0.00,CLR,,0.00,WeatherDisplay:10.37,2012-06-29 18:00:00,
2012-06-29 12:10:00,85.8,71.3,30.18,SE,136,10.0,10.0,62,0.00,CLR,,0.00,WeatherDisplay:10.37,2012-06-29 18:10:00,
2012-06-29 12:20:00,85.8,71.3,30.18,SE,136,10.0,10.0,62,0.00,CLR,,0.00,WeatherDisplay:10.37,2012-06-29 18:20:00,
2012-06-29 12:30:00,85.8,71.3,30.18,SE,136,10.0,10.0,62,0.00,CLR,,0.00,WeatherDisplay:10.37,2012-06-29 18:30:00,
2012-06-29 12:40:00,85.8,71.3,30.18,SE,136,10.0,10.0,62,0.00,CLR,,0.00,WeatherDisplay:10.37,2012-06-29 18:40:00,
2012-06-29 12:50:00,85.8,71.3,30.18,SE,136,10.0,10.0,62,0.00,CLR,,0.00,WeatherDisplay:10.37,2012-06-29 18:50:00,
2012-06-29 13:00:00,85.8,71.3,30.18,SE,136,10.0,10.0,62,0.00,CLR,,0.00,WeatherDisplay:10.37,2012-06-29 19:00:00,
2012-06-29 13:10:00,85.8,71.3,30.17,SE,136,10.0,10.0,62,0.00,CLR,,0.00,WeatherDisplay:10.37,2012-06-29 19:10:00,
2012-06-29 13:20:00,85.8,71.3,30.16,SE,136,10.0,10.0,62,0.00,CLR,,0.00,WeatherDisplay:10.37,2012-06-29 19:20:00,
2012-06-29 13:30:00,85.8,71.3,30.16,SE,136,10.0,10.0,62,0.00,CLR,,0.00,WeatherDisplay:10.37,2012-06-29 19:30:00,
2012-06-29 13:40:00,85.8,71.3,30.15,SE,136,10.0,10.0,62,0.00,CLR,,0.00,WeatherDisplay:10.37,2012-06-29 19:40:00,
2012-06-29 13:50:00,85.8,71.3,30.15,SE,136,10.0,10.0,62,0.00,CLR,,0.00,WeatherDisplay:10.37,2012-06-29 19:50:00,
2012-06-29 14:00:00,85.8,71.3,30.14,SE,136,10.0,10.0,62,0.00,CLR,,0.00,WeatherDisplay:10.37,2012-06-29 20:00:00,
2012-06-29 14:10:00,85.8,71.3,30.14,SE,136,10.0,10.0,62,0.00,CLR,,0.00,WeatherDisplay:10.37,2012-06-29 20:10:00,
2012-06-29 14:20:00,85.8,71.3,30.14,SE,136,10.0,10.0,62,0.00,CLR,,0.00,WeatherDisplay:10.37,2012-06-29 20:20:00,
2012-06-29 14:30:00,85.8,71.3,30.13,SE,136,10.0,10.0,62,0.00,CLR,,0.00,WeatherDisplay:10.37,2012-06-29 20:30:00,
2012-06-29 14:40:00,85.8,71.3,30.13,SE,136,10.0,10.0,62,0.00,CLR,,0.00,WeatherDisplay:10.37,2012-06-29 20:40:00,
2012-06-29 14:50:00,85.8,71.3,30.13,SE,136,10.0,10.0,62,0.00,CLR,,0.00,WeatherDisplay:10.37,2012-06-29 20:50:00,
2012-06-29 15:00:00,85.8,71.3,30.13,SE,136,10.0,10.0,62,0.00,CLR,,0.00,WeatherDisplay:10.37,2012-06-29 21:00:00,
2012-06-29 15:10:00,87.6,68.9,30.13,SE,128,9.0,10.0,54,0.00,CLR,,0.00,WeatherDisplay:10.37,2012-06-29 21:10:00,
2012-06-29 15:20:00,88.9,71.2,30.12,ENE,59,8.0,9.0,56,0.00,CLR,,0.00,WeatherDisplay:10.37,2012-06-29 21:20:00,
2012-06-29 15:30:00,88.7,71.5,30.11,East,82,9.0,13.0,57,0.00,CLR,,0.00,WeatherDisplay:10.37,2012-06-29 21:30:00,
2012-06-29 15:40:00,88.7,70.5,30.11,ENE,76,16.0,24.0,55,0.00,CLR,,0.00,WeatherDisplay:10.37,2012-06-29 21:40:00,
2012-06-29 15:50:00,88.5,71.3,30.11,ENE,67,10.0,14.0,57,0.00,CLR,,0.00,WeatherDisplay:10.37,2012-06-29 21:50:00,
2012-06-29 16:00:00,88.3,71.7,30.11,ENE,64,7.0,12.0,58,0.00,CLR,,0.00,WeatherDisplay:10.37,2012-06-29 22:00:00,
2012-06-29 16:10:00,88.2,70.5,30.11,NNE,27,12.0,15.0,56,0.00,CLR,,0.00,WeatherDisplay:10.37,2012-06-29 22:10:00,
2012-06-29 16:20:00,88.2,71.0,30.11,ESE,109,13.0,13.0,57,0.00,CLR,,0.00,WeatherDisplay:10.37,2012-06-29 22:20:00,
2012-06-29 16:30:00,88.0,71.9,30.11,ENE,71,12.0,13.0,59,0.00,CLR,,0.00,WeatherDisplay:10.37,2012-06-29 22:30:00,
2012-06-29 16:40:00,88.0,71.9,30.12,NE,55,7.0,12.0,59,0.00,CLR,,0.00,WeatherDisplay:10.37,2012-06-29 22:40:00,
2012-06-29 16:50:00,88.0,71.9,30.11,ENE,68,7.0,7.0,59,0.00,CLR,,0.00,WeatherDisplay:10.37,2012-06-29 22:50:00,
2012-06-29 17:00:00,88.0,71.9,30.11,NE,52,6.0,8.0,59,0.00,CLR,,0.00,WeatherDisplay:10.37,2012-06-29 23:00:00,
2012-06-29 17:10:00,88.0,71.9,30.12,NE,45,6.0,6.0,59,0.00,CLR,,0.00,WeatherDisplay:10.37,2012-06-29 23:10:00,
2012-06-29 17:20:00,88.0,71.9,30.12,NE,46,6.0,6.0,59,0.00,CLR,,0.00,WeatherDisplay:10.37,2012-06-29 23:20:00,
2012-06-29 17:30:00,87.1,70.5,30.12,NE,46,6.0,6.0,58,0.00,CLR,,0.00,WeatherDisplay:10.37,2012-06-29 23:30:00,
2012-06-29 17:40:00,87.1,70.5,30.11,NE,46,6.0,6.0,58,0.00,CLR,,0.00,WeatherDisplay:10.37,2012-06-29 23:40:00,
2012-06-29 17:50:00,87.1,70.5,30.12,NE,46,6.0,6.0,58,0.00,CLR,,0.00,WeatherDisplay:10.37,2012-06-29 23:50:00,
2012-06-29 18:00:00,87.1,70.5,30.11,NE,46,6.0,6.0,58,0.00,CLR,,0.00,WeatherDisplay:10.37,2012-06-30 00:00:00,
2012-06-29 18:10:00,87.1,70.5,30.12,NE,46,6.0,6.0,58,0.00,CLR,,0.00,WeatherDisplay:10.37,2012-06-30 00:10:00,
2012-06-29 18:20:00,87.1,70.5,30.12,NE,46,6.0,6.0,58,0.00,CLR,,0.00,WeatherDisplay:10.37,2012-06-30 00:20:00,
2012-06-29 18:30:00,87.1,70.5,30.11,NE,46,6.0,6.0,58,0.00,CLR,,0.00,WeatherDisplay:10.37,2012-06-30 00:30:00,
2012-06-29 18:40:00,87.1,70.5,30.11,NE,46,6.0,6.0,58,0.00,CLR,,0.00,WeatherDisplay:10.37,2012-06-30 00:40:00,
2012-06-29 18:50:00,87.1,70.5,30.12,NE,46,6.0,6.0,58,0.00,CLR,,0.00,WeatherDisplay:10.37,2012-06-30 00:50:00,
2012-06-29 19:00:00,87.1,70.5,30.13,NE,46,6.0,6.0,58,0.00,CLR,,0.00,WeatherDisplay:10.37,2012-06-30 01:00:00,
2012-06-29 19:10:00,87.1,70.5,30.13,NE,46,6.0,6.0,58,0.00,CLR,,0.00,WeatherDisplay:10.37,2012-06-30 01:10:00,
2012-06-29 19:20:00,85.2,68.7,30.13,NE,46,6.0,6.0,58,0.00,CLR,,0.00,WeatherDisplay:10.37,2012-06-30 01:20:00,
2012-06-29 19:30:00,84.4,68.0,30.14,NE,46,6.0,6.0,58,0.00,CLR,,0.00,WeatherDisplay:10.37,2012-06-30 01:30:00,
2012-06-29 19:40:00,84.4,68.0,30.14,NE,46,6.0,6.0,58,0.00,CLR,,0.00,WeatherDisplay:10.37,2012-06-30 01:40:00,
2012-06-29 19:50:00,84.4,71.3,30.13,NE,46,6.0,6.0,65,0.00,CLR,,0.00,WeatherDisplay:10.37,2012-06-30 01:50:00,
2012-06-29 20:00:00,84.4,71.8,30.14,NE,46,6.0,6.0,66,0.00,CLR,,0.00,WeatherDisplay:10.37,2012-06-30 02:00:00,
2012-06-29 20:10:00,84.4,71.3,30.14,East,99,17.0,17.0,65,0.00,CLR,,0.00,WeatherDisplay:10.37,2012-06-30 02:10:00,
2012-06-29 20:20:00,84.4,71.8,30.14,ESE,112,17.0,17.0,66,0.00,CLR,,0.00,WeatherDisplay:10.37,2012-06-30 02:20:00,
2012-06-29 20:30:00,84.4,71.8,30.14,ESE,109,17.0,17.0,66,0.00,CLR,,0.00,WeatherDisplay:10.37,2012-06-30 02:30:00,
2012-06-29 20:40:00,84.2,71.6,30.15,East,87,8.0,17.0,66,0.00,CLR,,0.00,WeatherDisplay:10.37,2012-06-30 02:40:00,
2012-06-29 20:50:00,84.4,71.8,30.15,East,90,8.0,8.0,66,0.00,CLR,,0.00,WeatherDisplay:10.37,2012-06-30 02:50:00,
2012-06-29 21:00:00,84.4,71.8,30.16,East,90,8.0,8.0,66,0.00,CLR,,0.00,WeatherDisplay:10.37,2012-06-30 03:00:00,
2012-06-29 21:10:00,84.4,71.8,30.16,East,91,8.0,8.0,66,0.00,CLR,,0.00,WeatherDisplay:10.37,2012-06-30 03:10:00,
2012-06-29 21:20:00,84.4,71.8,30.16,East,91,8.0,8.0,66,0.00,CLR,,0.00,WeatherDisplay:10.37,2012-06-30 03:20:00,
2012-06-29 21:30:00,84.4,71.8,30.17,East,91,8.0,8.0,66,0.00,CLR,,0.00,WeatherDisplay:10.37,2012-06-30 03:30:00,
2012-06-29 21:40:00,84.4,71.8,30.17,East,91,8.0,8.0,66,0.00,CLR,,0.00,WeatherDisplay:10.37,2012-06-30 03:40:00,
2012-06-29 21:50:00,84.4,71.8,30.17,East,91,8.0,8.0,66,0.00,CLR,,0.00,WeatherDisplay:10.37,2012-06-30 03:50:00,
2012-06-29 22:00:00,84.4,71.8,30.17,East,91,8.0,8.0,66,0.00,CLR,,0.00,WeatherDisplay:10.37,2012-06-30 04:00:00,
2012-06-29 22:10:00,84.4,71.8,30.18,East,91,8.0,8.0,66,0.00,CLR,,0.00,WeatherDisplay:10.37,2012-06-30 04:10:00,
2012-06-29 22:20:00,84.4,71.8,30.18,East,91,8.0,8.0,66,0.00,CLR,,0.00,WeatherDisplay:10.37,2012-06-30 04:20:00,
2012-06-29 22:30:00,84.4,71.8,30.18,East,91,8.0,8.0,66,0.00,CLR,,0.00,WeatherDisplay:10.37,2012-06-30 04:30:00,
2012-06-29 22:40:00,84.4,71.8,30.18,East,91,8.0,8.0,66,0.00,CLR,,0.00,WeatherDisplay:10.37,2012-06-30 04:40:00,
2012-06-29 22:50:00,84.4,71.8,30.19,East,91,8.0,8.0,66,0.00,CLR,,0.00,WeatherDisplay:10.37,2012-06-30 04:50:00,
2012-06-29 23:00:00,84.4,71.8,30.19,East,91,8.0,8.0,66,0.00,CLR,,0.00,WeatherDisplay:10.37,2012-06-30 05:00:00,
2012-06-29 23:10:00,84.4,71.8,30.19,East,91,8.0,8.0,66,0.00,CLR,,0.00,WeatherDisplay:10.37,2012-06-30 05:10:00,
2012-06-29 23:20:00,84.4,71.8,30.19,East,91,8.0,8.0,66,0.00,CLR,,0.00,WeatherDisplay:10.37,2012-06-30 05:20:00,
2012-06-29 23:30:00,84.4,71.8,30.18,East,91,8.0,8.0,66,0.00,CLR,,0.00,WeatherDisplay:10.37,2012-06-30 05:30:00,
2012-06-29 23:40:00,84.4,71.8,30.18,East,91,8.0,8.0,66,0.00,CLR,,0.00,WeatherDisplay:10.37,2012-06-30 05:40:00,
2012-06-29 23:50:00,84.4,71.8,30.18,East,91,8.0,8.0,66,0.00,CLR,,0.00,WeatherDisplay:10.37,2012-06-30 05:50:00,